Regional Weather Roundup
Issued by NWS

Current Version | Previous Version | Text Only | Print | Product List | Glossary On
Versions: 1 2 3 4 5 6 7 8 9 10 11 12 13 14 15 16 17 18 19 20 21 22 23 24 25 26 27 28 29 30 31 32 33 34 35 36 37 38 39 40 41 42 43 44 45 46 47 48 49 50
000
ASUS42 KKEY 290710
RWRKEY

FLORIDA REGIONAL WEATHER ROUNDUP FOR THE FLORIDA KEYS
NATIONAL WEATHER SERVICE KEY WEST FLORIDA
300 AM EDT FRI AUG 29 2014

...SOUTH FLORIDA AND THE KEYS...

CITY           SKY/WX    TMP DP  RH WIND       PRES   REMARKS
FORT MYERS     MOCLDY    77  76  96 CALM      29.99F
SW REGIONAL AP PTCLDY    76  75  97 CALM      30.00S
NAPLES         PTCLDY    80  77  90 E5        29.99F
MIAMI          PTCLDY    82  75  79 SE5       30.00F
WEST KENDALL   PTCLDY    78  74  87 CALM      30.00F
HOMESTEAD      PTCLDY    82  76  83 SE5       29.99F
MARATHON       PTCLDY    85  78  80 SE8       29.98F HX  96
BOCA CHICA NAS PTCLDY    84  77  79 SE8       29.98F HX  94
KEY WEST INTL  PTCLDY    86  76  71 SE12      29.99F HX  96

...INTERNATIONAL WEATHER...

CITY           SKY/WX    TMP DP  RH WIND       PRES   REMARKS
NASSAU BAHAMAS NOT AVBL
CANCUN MEXICO  MOCLDY    81  75  83 SE8       29.92F
COZUMEL MEXICO PTCLDY    75  75 100 SE3       29.92F

ADJACENT COASTAL WATERS...

STATION/POSITION TIME  SKY/WX   TEMP    WIND        PRES    WAVE
                                AIR SEA DIR/SP/G            HT/PER
                 (UTC)          (F)     (DEG/KT/KT) (MB)    (FT/S)
PULASKI SHOAL LI 0700            85     150/ 12/ 13 1015.1F
SAND KEY         0700            85      90/ 13/ 13 1015.3F
SOMBRERO KEY     0700            85     110/ 10/ 11 1016.0F
LONG KEY         0555            85 87  150/ 10/ 12 1016.6F
MOLASSES REEF    0700            85 87  110/ 10/ 12 1015.4F
FOWEY ROCKS      0700            85 87  120/ 12/ 13 1015.8F
Buoy 42080       NOT AVBL

$$


USA.gov is the U.S. government's official web portal to all federal, state and local government web resources and services.